Location: Dalton Gardens
(47.7327°N, 116.7697°W)
Time: 00:25:03
(UTC+00:00)

BlueWalker 3 - Pass Details

Date: 04 December 2022
Orbit: 499 x 517 km, 53.2° (Epoch: 26 January)

Event Time Altitude Azimuth Distance (km) Brightness Sun altitude
Rises 02:42:38 0° 296° (WNW) 2,629 6.5 -27.1°
Reaches altitude 10° 02:44:52 10° 301° (WNW) 1,737 5.3 -27.5°
Enters shadow 02:46:45 26° 311° (NW) 1,043 3.9 -27.8°
